Location: Ethel Rock
(53.4667°N, 4.5667°W)
Time: 05:33:37
(UTC+00:00)

Cosmos 1707 - Pass Details

Date: 24 October 2020
Orbit: 516 x 529 km, 82.5° (Epoch: 25 November)

Event Time Altitude Azimuth Distance (km) Brightness Sun altitude
Exits shadow 05:02:18 31° 320° (NW) 929 3.6 -18.5°
Drops below altitude 10° 05:04:59 10° 357° (N) 1,765 5.4 -18.1°
Sets 05:07:16 0° 6° (N) 2,660 6.4 -17.7°
